Terug naar catalogus

THOR ABLESTAR DEB

ActiefLEO
NORAD 178·DEBRIS·🇺🇸 United States

Gelanceerd Jun 29, 1961 vanaf Cape Canaveral Space Force Station

Loading…

Volgende Passages (komende 24 uur)

TLE

VersSource: Space-Track

Epoch: Sep 6, 2026, 05:37 UTC

1 00178U 61015BC  26249.23464710 -.00000024  00000-0  39844-4 0  9998
2 00178  66.8655 162.5210 0085106 296.0052  63.2281 13.93078344308538

Volg THOR ABLESTAR DEB in realtime met AllMySat

Download on the App Store